DW9945 Weather Reports


time (UTC)temp
C
wind
direction
speed
KPH
gust
KPH
rain 1hr
cm
rain 24hr
cm
rain mn
cm
humidity
%
barometer
mb
20260903231017 23 27 6.4 9.7 0.00 0.00 0.00 25 1020.2
20260903230518 23 9 4.8 8.0 0.00 0.00 0.00 26 1020.2
20260903230018 23 13 4.8 8.0 0.00 0.00 0.00 25 1020.1
20260903225507 24 14 4.8 8.0 0.00 0.00 0.00 25 1020.1
20260903225017 25 14 3.2 8.0 0.00 0.00 0.00 24 1020.1
20260903224519 25 35 3.2 4.8 0.00 0.00 0.00 24 1020.0
20260903224018 25 35 0.0 0.0 0.00 0.00 0.00 23 1020.0
20260903223518 25 35 0.0 0.0 0.00 0.00 0.00 23 1020.1
20260903223018 25 35 0.0 0.0 0.00 0.00 0.00 24 1020.0
20260903222518 25 23 0.0 0.0 0.00 0.00 0.00 24 1020.1
20260903221518 26 23 1.6 4.8 0.00 0.00 0.00 23 1019.9
20260903221018 26 23 4.8 4.8 0.00 0.00 0.00 23 1019.8
20260903220519 25 30 4.8 8.0 0.00 0.00 0.00 23 1019.8
20260903220008 25 7 3.2 4.8 0.00 0.00 0.00 24 1019.8
20260903215518 25 7 4.8 8.0 0.00 0.00 0.00 23 1019.7
20260903215018 25 0 8.0 8.0 0.00 0.00 0.00 23 1019.7
20260903214518 25 4 8.0 9.7 0.00 0.00 0.00 24 1019.6
20260903214007 25 348 4.8 8.0 0.00 0.00 0.00 24 1019.6
20260903213518 25 357 4.8 8.0 0.00 0.00 0.00 23 1019.7
20260903213018 26 0 4.8 4.8 0.00 0.00 0.00 23 1019.7
20260903212018 26 4 4.8 8.0 0.00 0.00 0.00 23 1019.7
20260903211518 26 359 8.0 8.0 0.00 0.00 0.00 23 1019.8
20260903210518 26 355 4.8 4.8 0.00 0.00 0.00 22 1019.7
20260903210007 27 13 3.2 4.8 0.00 0.00 0.00 23 1019.7
20260903205518 27 13 4.8 8.0 0.00 0.00 0.00 22 1019.6
20260903205018 27 355 4.8 4.8 0.00 0.00 0.00 22 1019.6
20260903204507 27 9 4.8 8.0 0.00 0.00 0.00 22 1019.6
20260903204018 27 356 4.8 9.7 0.00 0.00 0.00 22 1019.6
20260903203508 27 355 3.2 8.0 0.00 0.00 0.00 21 1019.6
20260903202518 28 17 4.8 8.0 0.00 0.00 0.00 21 1019.4
20260903202018 28 9 4.8 8.0 0.00 0.00 0.00 20 1019.3
20260903201518 29 19 4.8 8.0 0.00 0.00 0.00 21 1019.3
20260903201018 29 31 4.8 8.0 0.00 0.00 0.00 21 1019.3
20260903200507 29 31 4.8 8.0 0.00 0.00 0.00 21 1019.2
20260903195518 30 356 4.8 8.0 0.00 0.00 0.00 21 1018.9
20260903195018 30 17 3.2 8.0 0.00 0.00 0.00 21 1018.8
20260903194518 30 20 8.0 9.7 0.00 0.00 0.00 20 1018.8
20260903194019 30 17 3.2 4.8 0.00 0.00 0.00 20 1018.7
20260903193507 30 307 3.2 4.8 0.00 0.00 0.00 21 1018.8
20260903192518 30 0 6.4 14.5 0.00 0.00 0.00 21 1018.8
20260903192007 30 1 8.0 14.5 0.00 0.00 0.00 21 1018.6
20260903191516 31 37 3.2 4.8 0.00 0.00 0.00 20 1018.6
20260903191018 32 215 0.0 0.0 0.00 0.00 0.00 19 1018.4
20260903190518 32 215 0.0 0.0 0.00 0.00 0.00 18 1018.4
20260903185518 33 215 1.6 4.8 0.00 0.00 0.00 18 1018.4
20260903185018 33 215 3.2 4.8 0.00 0.00 0.00 18 1018.4
20260903184518 34 190 1.6 4.8 0.00 0.00 0.00 17 1018.4
20260903182506 35 206 4.8 8.0 0.00 0.00 0.00 16 1018.3
20260903182007 35 195 4.8 9.7 0.00 0.00 0.00 16 1018.3
20260903181519 35 191 4.8 9.7 0.00 0.00 0.00 16 1018.4
20260903181021 35 199 9.7 12.9 0.00 0.00 0.00 16 1018.3
20260903180519 35 193 6.4 11.3 0.00 0.00 0.00 16 1018.3
20260903180007 36 194 4.8 9.7 0.00 0.00 0.00 16 1018.2
20260903175518 36 212 4.8 9.7 0.00 0.00 0.00 16 1018.3
20260903175018 36 232 4.8 12.9 0.00 0.00 0.00 16 1018.2
20260903174507 36 221 6.4 14.5 0.00 0.00 0.00 15 1018.2
20260903174007 36 214 4.8 12.9 0.00 0.00 0.00 15 1018.3
20260903173507 36 206 6.4 11.3 0.00 0.00 0.00 15 1018.3
20260903173017 36 213 8.0 12.9 0.00 0.00 0.00 15 1018.2
20260903172517 36 222 6.4 9.7 0.00 0.00 0.00 15 1018.3
20260903172006 36 192 6.4 11.3 0.00 0.00 0.00 15 1018.3
20260903171518 36 198 6.4 11.3 0.00 0.00 0.00 15 1018.3
20260903170518 36 265 6.4 14.5 0.00 0.00 0.00 15 1018.3
20260903165507 36 202 9.7 19.3 0.00 0.00 0.00 15 1018.3
20260903165018 36 224 8.0 19.3 0.00 0.00 0.00 15 1018.2
20260903164518 36 201 8.0 11.3 0.00 0.00 0.00 15 1018.3
20260903164018 36 250 4.8 19.3 0.00 0.00 0.00 15 1018.3
20260903163518 36 235 9.7 19.3 0.00 0.00 0.00 15 1018.2
20260903163018 36 231 8.0 19.3 0.00 0.00 0.00 15 1018.3
20260903162507 36 191 9.7 16.1 0.00 0.00 0.00 15 1018.3
20260903162007 36 186 9.7 19.3 0.00 0.00 0.00 15 1018.3
20260903161507 36 200 11.3 19.3 0.00 0.00 0.00 15 1018.3
20260903161007 36 191 9.7 16.1 0.00 0.00 0.00 15 1018.2
20260903160518 36 190 9.7 19.3 0.00 0.00 0.00 15 1018.2
20260903160017 36 195 11.3 19.3 0.00 0.00 0.00 15 1018.2
20260903155017 36 194 9.7 19.3 0.00 0.00 0.00 15 1018.1
20260903154507 36 136 9.7 20.9 0.00 0.00 0.00 15 1018.1
20260903154018 36 219 8.0 14.5 0.00 0.00 0.00 16 1018.0
20260903153518 36 243 12.9 19.3 0.00 0.00 0.00 16 1018.1
20260903152517 36 194 9.7 16.1 0.00 0.00 0.00 16 1018.3
20260903150007 36 177 3.2 11.3 0.00 0.00 0.00 16 1018.6
20260903145017 36 273 9.7 19.3 0.00 0.00 0.00 16 1018.7
20260903144018 36 277 3.2 11.3 0.00 0.00 0.00 16 1018.9
20260903143507 36 206 8.0 12.9 0.00 0.00 0.00 17 1018.9
20260903142506 36 295 11.3 19.3 0.00 0.00 0.00 17 1019.0
20260903142006 36 277 4.8 12.9 0.00 0.00 0.00 17 1019.0
20260903141518 36 206 11.3 19.3 0.00 0.00 0.00 17 1019.0
20260903141017 36 208 3.2 8.0 0.00 0.00 0.00 17 1019.1
20260903140017 35 258 3.2 14.5 0.00 0.00 0.00 18 1019.3
20260903135517 35 238 9.7 20.9 0.00 0.00 0.00 17 1019.4
20260903135017 35 237 9.7 19.3 0.00 0.00 0.00 19 1019.5
20260903134517 35 190 11.3 20.9 0.00 0.00 0.00 19 1019.5
20260903133517 35 165 9.7 14.5 0.00 0.00 0.00 19 1019.7
20260903133018 35 255 9.7 20.9 0.00 0.00 0.00 19 1019.7
20260903132506 35 231 9.7 20.9 0.00 0.00 0.00 19 1019.8
20260903132017 35 215 8.0 19.3 0.00 0.00 0.00 18 1019.9
20260903131507 35 289 11.3 22.5 0.00 0.00 0.00 19 1019.9
20260903131017 35 202 12.9 27.4 0.00 0.00 0.00 19 1020.0
20260903130506 35 294 8.0 20.9 0.00 0.00 0.00 19 1019.9
20260903130007 35 302 8.0 22.5 0.00 0.00 0.00 18 1019.9
20260903125506 35 292 11.3 22.5 0.00 0.00 0.00 18 1020.0
20260903124517 34 265 6.4 20.9 0.00 0.00 0.00 17 1019.9
20260903124017 34 207 9.7 19.3 0.00 0.00 0.00 16 1019.9
20260903123518 34 244 8.0 19.3 0.00 0.00 0.00 18 1020.0
20260903123018 34 218 11.3 22.5 0.00 0.00 0.00 18 1020.0
20260903122518 34 216 9.7 19.3 0.00 0.00 0.00 19 1020.1
20260903121517 34 258 11.3 25.7 0.00 0.00 0.00 18 1020.2
20260903121018 33 210 9.7 19.3 0.00 0.00 0.00 21 1020.3
20260903120518 33 201 11.3 20.9 0.00 0.00 0.00 18 1020.3
20260903120007 33 242 8.0 14.5 0.00 0.00 0.00 20 1020.3
20260903115517 33 221 8.0 14.5 0.00 0.00 0.00 26 1020.3
20260903115017 32 207 4.8 16.1 0.00 0.00 0.00 27 1020.4
20260903114518 32 197 4.8 11.3 0.00 0.00 0.00 28 1020.4
20260903114007 32 245 3.2 12.9 0.00 0.00 0.00 28 1020.5
20260903113518 32 202 4.8 16.1 0.00 0.00 0.00 27 1020.5
20260903113017 32 207 8.0 14.5 0.00 0.00 0.00 27 1020.6
20260903112017 31 182 9.7 14.5 0.00 0.00 0.00 29 1020.5
20260903111517 31 139 3.2 8.0 0.00 0.00 0.00 34 1020.6
20260903111017 31 196 4.8 16.1 0.00 0.00 0.00 34 1020.7
20260903110517 31 137 1.6 8.0 0.00 0.00 0.00 34 1020.8
20260903110017 31 178 4.8 11.3 0.00 0.00 0.00 32 1020.9
20260903105506 30 243 4.8 11.3 0.00 0.00 0.00 32 1021.0
20260903105018 30 190 6.4 12.9 0.00 0.00 0.00 32 1021.1
20260903104506 30 132 4.8 9.7 0.00 0.00 0.00 34 1021.0
20260903104017 30 151 4.8 9.7 0.00 0.00 0.00 35 1021.0
20260903103517 30 169 3.2 9.7 0.00 0.00 0.00 34 1021.0
20260903102017 29 163 3.2 8.0 0.00 0.00 0.00 37 1021.2
20260903101517 29 162 1.6 9.7 0.00 0.00 0.00 39 1021.2
20260903101017 29 169 4.8 8.0 0.00 0.00 0.00 38 1021.1
20260903100507 28 214 4.8 9.7 0.00 0.00 0.00 38 1021.2
20260903100019 28 85 3.2 4.8 0.00 0.00 0.00 38 1021.2
20260903095519 28 48 3.2 4.8 0.00 0.00 0.00 39 1021.2
20260903095019 28 70 1.6 8.0 0.00 0.00 0.00 40 1021.2
20260903094508 28 113 3.2 4.8 0.00 0.00 0.00 40 1021.2
20260903094008 27 159 4.8 9.7 0.00 0.00 0.00 41 1021.2
20260903093519 27 203 1.6 4.8 0.00 0.00 0.00 41 1021.3
20260903093019 27 183 8.0 8.0 0.00 0.00 0.00 40 1021.3
20260903092519 28 211 4.8 8.0 0.00 0.00 0.00 40 1021.2
20260903091520 27 89 3.2 4.8 0.00 0.00 0.00 43 1021.3
20260903091019 27 146 3.2 4.8 0.00 0.00 0.00 42 1021.3
20260903090509 27 144 1.6 4.8 0.00 0.00 0.00 42 1021.2
20260903090019 26 118 3.2 9.7 0.00 0.00 0.00 42 1021.2
20260903085519 26 136 1.6 4.8 0.00 0.00 0.00 43 1021.2
20260903085008 26 90 4.8 4.8 0.00 0.00 0.00 44 1021.2
20260903084019 26 104 3.2 4.8 0.00 0.00 0.00 43 1021.1
20260903083008 26 46 1.6 4.8 0.00 0.00 0.00 45 1021.1
20260903082508 25 80 1.6 4.8 0.00 0.00 0.00 45 1021.2
20260903081519 25 70 3.2 4.8 0.00 0.00 0.00 46 1021.1
20260903080519 25 36 1.6 4.8 0.00 0.00 0.00 47 1021.1
20260903080020 25 69 1.6 4.8 0.00 0.00 0.00 47 1021.1
20260903075518 24 72 1.6 9.7 0.00 0.00 0.00 48 1021.0
20260903075018 24 91 3.2 9.7 0.00 0.00 0.00 48 1021.0
20260903074019 24 72 0.0 4.8 0.00 0.00 0.00 49 1021.1
20260903073508 24 82 3.2 4.8 0.00 0.00 0.00 49 1021.1
20260903073019 23 107 0.0 0.0 0.00 0.00 0.00 50 1021.1
20260903072507 23 108 0.0 1.6 0.00 0.00 0.00 50 1021.1
20260903072008 23 74 0.0 1.6 0.00 0.00 0.00 52 1021.0
20260903071507 23 34 1.6 4.8 0.00 0.00 0.00 52 1021.0
20260903070508 22 56 0.0 4.8 0.00 0.00 0.00 53 1020.8
20260903070019 22 57 4.8 9.7 0.00 0.00 0.00 53 1020.8
20260903065519 22 44 1.6 4.8 0.00 0.00 0.00 54 1020.8
20260903065019 22 45 3.2 4.8 0.00 0.00 0.00 54 1020.7
20260903064019 21 17 4.8 9.7 0.00 0.00 0.00 54 1020.6
20260903063019 21 52 1.6 4.8 0.00 0.00 0.00 55 1020.6
20260903062507 21 9 3.2 4.8 0.00 0.00 0.00 55 1020.7
20260903062019 21 47 3.2 8.0 0.00 0.00 0.00 55 1020.4
20260903061508 21 42 3.2 4.8 0.00 0.00 0.00 56 1020.4
20260903061019 21 24 4.8 9.7 0.00 0.00 0.00 56 1020.5
20260903060519 21 33 8.0 11.3 0.00 0.00 0.00 56 1020.3
20260903060019 21 26 6.4 12.9 0.00 0.00 0.00 56 1020.2
20260903055018 21 11 4.8 8.0 0.00 0.00 0.00 56 1020.1
20260903054519 21 17 4.8 9.7 0.00 0.00 0.00 56 1020.1
20260903054019 21 14 4.8 12.9 0.00 0.00 0.00 55 1020.0
20260903053518 21 19 6.4 12.9 0.00 0.00 0.00 55 1020.0
20260903053018 21 35 8.0 14.5 0.00 0.00 0.00 55 1020.0
20260903052518 21 20 6.4 14.5 0.00 0.00 0.00 55 1020.0
20260903052019 21 21 4.8 8.0 0.00 0.00 0.00 56 1020.0
20260903051519 21 36 4.8 11.3 0.00 0.00 0.00 56 1020.1
20260903051018 21 36 4.8 9.7 0.00 0.00 0.00 56 1020.0
20260903050508 20 32 4.8 8.0 0.00 0.00 0.00 57 1019.9
20260903050019 20 20 3.2 9.7 0.00 0.00 0.00 57 1019.9
20260903045518 20 31 3.2 4.8 0.00 0.00 0.00 57 1020.0
20260903045019 20 15 1.6 4.8 0.00 0.00 0.00 57 1020.0
20260903044519 20 5 0.0 0.0 0.00 0.00 0.00 57 1019.9
20260903043508 20 5 1.6 3.2 0.00 0.00 0.00 57 1019.9
20260903042519 20 18 1.6 4.8 0.00 0.00 0.00 57 1019.9
20260903042019 20 51 1.6 4.8 0.00 0.00 0.00 57 1019.8
20260903041519 20 62 3.2 8.0 0.00 0.00 0.00 58 1019.7
20260903041019 20 24 3.2 4.8 0.00 0.00 0.00 57 1019.5
20260903040519 20 36 3.2 4.8 0.00 0.00 0.00 56 1019.5
20260903040009 20 36 3.2 4.8 0.00 0.00 0.00 56 1019.5
20260903035518 20 26 3.2 4.8 0.00 0.00 0.00 55 1019.5
20260903035007 20 33 4.8 4.8 0.00 0.00 0.00 56 1019.5
20260903034519 20 27 4.8 8.0 0.00 0.00 0.00 56 1019.6
20260903034018 19 25 4.8 8.0 0.00 0.00 0.00 56 1019.6
20260903033518 19 25 4.8 4.8 0.00 0.00 0.00 57 1019.6
20260903032508 18 11 4.8 8.0 0.00 0.00 0.00 58 1019.7
20260903032019 19 8 8.0 9.7 0.00 0.00 0.00 57 1019.6
20260903031518 19 15 4.8 8.0 0.00 0.00 0.00 56 1019.6
20260903030519 20 11 4.8 4.8 0.00 0.00 0.00 55 1019.8
20260903030019 20 12 0.0 3.2 0.00 0.00 0.00 53 1019.8
20260903025519 21 111 0.0 0.0 0.00 0.00 0.00 53 1019.8
20260903025007 21 111 0.0 0.0 0.00 0.00 0.00 52 1019.7
20260903024507 22 111 0.0 0.0 0.00 0.00 0.00 51 1019.8
20260903024007 22 111 0.0 4.8 0.00 0.00 0.00 50 1019.8
20260903023518 22 125 4.8 11.3 0.00 0.00 0.00 50 1019.8
20260903022518 22 51 0.0 3.2 0.00 0.00 0.00 49 1019.5
20260903022018 23 51 3.2 8.0 0.00 0.00 0.00 49 1019.5
20260903021518 23 17 3.2 9.7 0.00 0.00 0.00 49 1019.5
20260903021009 22 10 1.6 4.8 0.00 0.00 0.00 49 1019.4
20260903020508 22 17 3.2 4.8 0.00 0.00 0.00 49 1019.5
20260903020019 23 27 4.8 8.0 0.00 0.00 0.00 48 1019.5
20260903015518 23 26 4.8 12.9 0.00 0.00 0.00 48 1019.5
20260903015018 23 22 8.0 14.5 0.00 0.00 0.00 48 1019.5
20260903014007 23 27 6.4 9.7 0.00 0.00 0.00 48 1019.6
20260903013018 22 19 4.8 9.7 0.00 0.00 0.00 48 1019.6
20260903012518 22 21 4.8 8.0 0.00 0.00 0.00 47 1019.6
20260903012018 23 22 4.8 8.0 0.00 0.00 0.00 46 1019.6
20260903010520 23 20 8.0 12.9 0.00 0.00 0.00 45 1019.6
20260903010008 23 11 9.7 14.5 0.00 0.00 0.00 45 1019.6
20260903004507 23 5 8.0 12.9 0.00 0.00 0.00 42 1019.6
20260903003507 23 9 9.7 19.3 0.00 0.00 0.00 40 1019.6
20260903003008 23 356 9.7 14.5 0.00 0.00 0.00 38 1019.6
20260903002507 23 17 9.7 14.5 0.00 0.00 0.00 37 1019.6
20260903002008 24 22 8.0 12.9 0.00 0.00 0.00 35 1019.6
20260903001507 24 29 8.0 12.9 0.00 0.00 0.00 34 1019.6
20260903001007 24 21 8.0 19.3 0.00 0.00 0.00 33 1019.7
20260903000007 24 10 9.7 19.3 0.00 0.00 0.00 32 1019.5
20260902235007 24 26 4.8 9.7 0.00 0.00 0.00 32 1019.5
20260902234007 24 32 6.4 9.7 0.00 0.00 0.00 33 1019.4
20260902233507 24 25 6.4 14.5 0.00 0.00 0.00 34 1019.5
20260902232507 23 49 4.8 4.8 0.00 0.00 0.00 37 1019.6
20260902232007 22 23 3.2 4.8 0.00 0.00 0.00 37 1019.6
20260902231508 23 27 0.0 3.2 0.00 0.00 0.00 36 1019.6